Overview Statistics Trail Chart Weather Telemetry Raw packets
 

This is the latest recevied weather packets stored in our database for station/object KI4KWR-1. If no packets are shown the sender has not sent any weather packets the latest 10 day(s).

<< 27 28 29 30 31 32 33 >>
Time Temp. Humidity Pressure Rain* Wind** Luminosity Snow
1787984104 20.56° C 80% 989 hPa 0 mm - - -
1787983204 20.56° C 82% 988.9 hPa 0 mm - - -
1787982304 20.56° C 80% 989 hPa 0 mm - - -
1787981404 21.11° C 80% 989 hPa 0 mm - - -
1787980504 21.11° C 79% 989 hPa 0 mm - - -
1787979604 21.67° C 77% 989.1 hPa 0 mm - - -
1787978717 21.67° C 75% 989.2 hPa 0 mm - - -
1787977804 22.22° C 74% 989.1 hPa 0 mm - - -
1787976904 22.78° C 73% 989 hPa 0 mm - - -
1787976004 22.78° C 73% 989 hPa 0 mm - - -
1787975104 22.78° C 74% 989 hPa 0 mm - - -
1787974204 22.22° C 74% 988.9 hPa 0 mm - - -
1787973310 22.78° C 74% 988.8 hPa 0 mm - - -
1787972404 22.78° C 73% 988.7 hPa 0 mm - - -
1787971511 23.33° C 74% 988.7 hPa 0 mm - - -
1787970603 23.33° C 73% 988.6 hPa 0 mm - - -
1787969704 23.89° C 73% 988.4 hPa 0 mm - - -
1787968804 23.89° C 72% 988.1 hPa 0 mm - - -
1787967904 24.44° C 72% 988 hPa 0 mm - - -
1787967004 25° C 70% 988 hPa 0 mm - - -
1787966104 25.56° C 69% 987.9 hPa 0 mm - - -
1787965204 26.11° C 67% 987.7 hPa 0 mm - - -
1787964304 26.67° C 65% 987.6 hPa 0 mm - - -
1787963404 27.22° C 62% 987.5 hPa 0 mm - - -
1787962504 28.89° C 58% 987.4 hPa 0 mm - - -

* Rain latest hour (hover to see other rain measurements)
** Current wind speed in m/s (hover to see current wind gust speed)